Location: Bezem�n
(49.8423°N, 12.9962°E)
Time: 09:37:30
(UTC+00:00)

Daily predictions for brighter satellites

Satellite Brightness Start Highest point End
(mag) Time Altitude Azimuth Time Altitude Azimuth Time Altitude Azimuth
Meteor 2-4 Rocket 3.7 19:43:00 10° SSW 19:48:21 87° W 19:53:46 10° NNE
STARLINK-1202 3.6 19:44:55 10° SW 19:49:02 70° SSE 19:53:10 10° ENE
NOSS 2-2 (E) 4.3 19:47:09 10° S 19:50:04 24° ESE 19:53:16 10° ENE
EXPRESS MD2 4.1 19:48:13 10° SSW 19:50:59 30° SE 19:55:39 10° ENE
Cosmos 1378 Rocket 4.4 19:47:14 10° SSE 19:51:12 33° E 19:55:09 10° NNE
STARLINK-1254 4.2 19:47:43 10° W 19:51:49 61° N 19:55:56 10° ENE
Cosmos 1833 Rocket 3.7 19:47:19 10° NW 19:52:37 43° WSW 19:57:52 10° S
STARLINK-1098 3.6 19:48:32 10° WNW 19:52:42 90° NE 19:56:51 10° ESE
Cosmos 2297 4.1 19:49:43 10° S 19:55:01 42° ESE 20:00:22 10° NE
Cosmos 1943 Rocket 3.5 19:51:44 10° SE 19:55:40 20° E 19:59:39 10° NE
STARLINK-1231 4.3 19:52:42 10° W 19:56:48 59° N 20:00:55 10° ENE
STARLINK-1123 3.6 19:53:30 10° WNW 19:57:40 87° SSW 20:01:49 10° ESE
STARLINK-1246 3.6 19:54:51 10° WSW 19:59:00 78° SSE 20:03:09 10° ENE
Cosmos 2082 Rocket 2.7 19:53:44 10° NW 19:59:23 61° WSW 20:04:58 10° SSE
IGS 5A 3.6 19:56:07 10° SSE 20:00:14 66° ENE 20:04:23 10° N
Cosmos 1420 Rocket 4.4 19:56:13 10° SSW 20:01:24 69° WNW 20:06:36 10° NNE
Cosmos 1452 Rocket 3.6 19:56:21 10° SSW 20:01:38 87° ESE 20:06:58 10° NNE
STARLINK-1232 4.3 19:57:43 10° W 20:01:49 58° N 20:05:55 10° ENE
Cosmos 332 Rocket 3.8 19:57:02 10° SSW 20:01:54 71° ESE 20:06:48 10° NNE
BREEZE-M DEB 3.9 20:00:08 10° S 20:02:00 18° SE 20:05:02 10° E
Intercosmos 24 4.0 19:58:32 10° NNW 20:02:06 68° W 20:05:51 10° S
STARLINK-1097 3.6 19:58:30 10° WNW 20:02:40 83° SSW 20:06:49 10° ESE
Landsat 7 3.9 19:58:30 10° SSE 20:03:14 73° ENE 20:08:01 10° N
STARLINK-1224 3.6 19:59:49 10° WSW 20:03:58 82° SSE 20:08:07 10° ENE
Meteor 1-23 Rocket 4.5 20:00:58 10° S 20:06:27 52° E 20:11:54 10° NNE
STARLINK-1208 4.3 20:02:42 10° W 20:06:48 57° N 20:10:54 10° ENE
STARLINK-1099 3.6 20:03:29 10° WNW 20:07:38 79° SSW 20:11:47 10° ESE
Cosmos 1461 3.0 20:04:11 10° SSW 20:08:16 59° SE 20:12:36 10° NE
STARLINK-1225 3.6 20:04:48 10° WSW 20:08:56 86° SSE 20:13:07 10° ENE
Okean 3 4.4 20:06:09 10° SSW 20:10:22 53° WNW 20:14:36 10° N
SAR-Lupe-2 3.7 20:06:57 10° NNE 20:10:31 55° ESE 20:14:02 10° S
Cosmos 2369 Rocket 3.6 20:07:36 10° SE 20:11:35 20° E 20:15:34 10° NE
STARLINK-1271 4.4 20:07:44 10° W 20:11:49 56° N 20:15:55 10° ENE
STARLINK-1104 3.6 20:08:27 10° WNW 20:12:36 74° SSW 20:16:40 10° ESE
STARLINK-1230 3.6 20:09:46 10° WSW 20:13:55 90° SW 20:18:05 10° ENE
STARLINK-1212 3.9 20:10:54 10° WNW 20:13:56 45° N 20:16:57 10° E
STARLINK-1105 3.9 20:11:22 10° WNW 20:14:24 45° N 20:17:24 10° E
NOSS 2-2 (C) 3.9 20:11:22 10° S 20:14:33 31° ESE 20:18:03 10° ENE
STARLINK-1247 3.9 20:12:15 10° WNW 20:15:17 46° N 20:18:19 10° E
STARLINK-1227 3.9 20:12:45 10° WNW 20:15:47 46° N 20:18:47 10° E
STARLINK-1226 3.9 20:13:36 10° WNW 20:16:38 46° N 20:19:40 10° E
STARLINK-1154 4.4 20:12:43 10° W 20:16:49 55° N 20:20:54 10° ENE
SL-4 R/B 4.0 20:16:04 10° W 20:16:59 11° WSW 20:17:53 10° SW
STARLINK-1215 3.9 20:14:30 10° WNW 20:17:33 46° N 20:20:35 10° E
STARLINK-1144 3.7 20:13:26 10° WNW 20:17:35 70° SSW 20:21:27 11° SE
ATLAS 2AS CENTAUR R/B 4.3 20:13:25 10° SSE 20:18:43 20° ESE 20:24:02 10° ENE
STARLINK-1243 3.7 20:14:45 10° WSW 20:18:55 86° NNW 20:23:04 10° ENE
SPOT 5 3.4 20:14:18 10° SSE 20:19:21 58° ENE 20:24:38 10° N
STARLINK-1217 3.9 20:16:19 10° WNW 20:19:21 46° N 20:22:23 10° E
NOSS 3-2 (A) 4.2 20:12:19 10° NW 20:19:39 74° NE 20:27:48 11° SE
STARLINK-1229 3.9 20:17:14 10° WNW 20:20:16 46° N 20:23:18 10° E
STARLINK-1270 3.9 20:18:07 10° WNW 20:21:10 47° N 20:24:13 10° E
STARLINK-1197 4.4 20:17:42 10° W 20:21:47 55° N 20:25:52 10° ENE
NOSS 8 (F) 4.2 20:18:40 10° SW 20:21:50 85° NW 20:24:54 10° NE
STARLINK-1103 3.7 20:18:25 10° WNW 20:22:32 66° SSW 20:26:14 13° SE
STARLINK-1189 3.8 20:19:56 10° WNW 20:22:58 47° N 20:26:01 10° E
STARLINK-1236 3.7 20:19:43 10° WSW 20:23:52 83° NNW 20:28:03 10° ENE
STARLINK-1188 3.8 20:20:50 10° WNW 20:23:53 47° N 20:26:56 10° E
ERS-1 Rocket 3.0 20:19:40 11° SSE 20:24:32 72° ENE 20:29:35 10° N
STARLINK-1187 3.8 20:21:56 10° WNW 20:24:58 48° N 20:28:00 10° E
STARLINK-1191 3.8 20:23:17 10° WNW 20:26:19 47° N 20:29:21 10° E
STARLINK-1198 4.4 20:22:42 10° W 20:26:47 54° N 20:30:52 10° ENE
STARLINK-1221 3.8 20:24:15 10° WNW 20:27:17 48° N 20:30:18 10° E
STARLINK-1101 3.7 20:23:24 10° WNW 20:27:30 62° SSW 20:31:00 14° SE
STARLINK-1222 3.8 20:25:06 10° WNW 20:28:08 48° N 20:31:10 10° E
STARLINK-1214 3.8 20:25:59 10° WNW 20:29:02 48° N 20:32:04 10° E
Okean 2 4.4 20:25:57 13° SSE 20:29:02 31° E 20:32:44 10° NNE
Cosmos 1066 Rocket 4.1 20:24:10 10° S 20:29:31 75° E 20:34:53 10° NNE
USA 245 3.5 20:28:11 10° S 20:30:59 39° WSW 20:33:24 10° NNW
USA 238 DEB 3.9 20:24:22 10° NW 20:31:34 81° NE 20:38:25 13° SE
USA 238 3.9 20:24:28 10° NW 20:31:41 80° NE 20:38:32 13° SE
STARLINK-1199 4.4 20:27:43 10° W 20:31:48 54° N 20:35:53 10° ENE
STARLINK-1102 3.8 20:28:24 10° WNW 20:32:29 59° SSW 20:35:48 15° SE
STARLINK-1228 3.7 20:30:03 10° WNW 20:33:31 58° NNE 20:36:59 10° E
Okean 1 Rocket 3.2 20:29:09 10° NNW 20:33:38 80° W 20:37:54 11° S
STARLINK-1269 3.8 20:29:42 10° WSW 20:33:52 77° NNW 20:38:02 10° ENE
Cosmos 1805 3.3 20:30:01 10° N 20:33:57 66° E 20:37:07 15° SSE
Resurs 01 Rocket 3.6 20:31:04 10° SSW 20:34:45 25° W 20:38:28 10° NW
Cosmos 2278 Rocket 3.8 20:29:33 10° WSW 20:34:52 39° NW 20:40:12 10° NNE
TSX-5 4.3 20:29:23 10° SSW 20:34:53 84° WNW 20:39:07 10° NNE
Nadezhda 4 Rocket 3.9 20:29:51 10° S 20:35:58 78° E 20:42:07 10° NNE
STARLINK-1210 4.4 20:32:42 10° W 20:36:47 54° N 20:40:52 10° ENE
STARLINK-1235 3.6 20:33:41 10° WNW 20:36:53 55° NNE 20:40:05 10° E
STARLINK-1111 3.9 20:33:22 10° WNW 20:37:27 55° SSW 20:40:34 16° SE
STARLINK-1200 3.9 20:34:41 10° WSW 20:38:50 74° NNW 20:42:59 10° ENE
Cosmos 1455 Rocket 3.9 20:35:09 10° N 20:39:13 37° ENE 20:42:18 16° SE
STARLINK-1219 4.4 20:37:42 10° WNW 20:41:47 54° N 20:45:51 10° ENE
STARLINK-1073 3.9 20:38:22 10° WNW 20:42:25 51° SSW 20:45:22 17° SE
SL-8 R/B 4.1 20:38:02 10° W 20:42:39 47° SSW 20:46:16 16° SE
STARLINK-1192 3.9 20:39:41 10° WSW 20:43:50 71° NNW 20:47:59 10° ENE
ATLAS CENTAUR R/B 3.6 20:45:22 10° NNW 20:46:04 11° N 20:46:46 10° NNE
STARLINK-1211 4.4 20:42:43 10° WNW 20:46:48 54° N 20:50:52 10° E
STARLINK-1121 4.0 20:43:22 10° WNW 20:47:22 48° SSW 20:50:08 18° SE
ATLAS 3B CENTAUR R/B 4.4 20:40:09 10° SW 20:47:24 17° SSW 20:50:57 13° SSE
Terra 1.9 20:44:22 16° SSE 20:48:12 73° ENE 20:52:59 10° N
SL-4 R/B 3.4 20:44:29 10° SSW 20:48:19 24° SE 20:52:13 10° E
Cosmos 1110 Rocket 4.0 20:43:22 10° SSW 20:48:34 89° ESE 20:53:46 10° NNE
STARLINK-1244 4.0 20:44:40 10° W 20:48:49 69° NNW 20:52:58 10° ENE
SPOT 1/Viking Rocket 4.1 20:45:22 10° S 20:50:25 54° W 20:55:29 10° NNW
Abrixas rocket 3.5 20:48:38 10° W 20:50:58 21° SSW 20:51:50 19° S
Cosmos 1842 3.9 20:48:52 18° SSE 20:51:18 39° E 20:54:57 10° NNE
CARTOSAT-1 3.7 20:47:49 14° S 20:51:30 70° WSW 20:55:51 10° NNW
STARLINK-1245 4.4 20:47:42 10° WNW 20:51:47 54° N 20:55:51 10° E
STARLINK-1106 4.1 20:48:23 10° WNW 20:52:21 45° SW 20:54:56 19° SSE
NOSS 8 (H) 4.4 20:49:55 10° SW 20:53:01 69° NW 20:56:06 10° NE
STARLINK-1138 4.0 20:49:40 10° W 20:53:49 67° NNW 20:57:57 10° ENE
STARLINK-1234 3.3 20:51:28 10° WNW 20:54:43 66° NNE 20:57:43 12° E
STARLINK-1233 4.4 20:52:40 10° WNW 20:56:45 54° N 21:00:50 10° E
STARLINK-1112 4.2 20:53:21 10° WNW 20:57:16 42° SW 20:59:42 20° SSE
STARLINK-1143 4.1 20:54:39 10° W 20:58:47 65° NNW 21:02:55 10° ENE
STARLINK-1209 3.2 20:57:25 10° WNW 21:00:43 72° NNE 21:03:27 14° ESE
STARLINK-1204 4.3 20:57:40 10° WNW 21:01:46 55° N 21:05:50 10° E
STARLINK-1128 4.3 20:58:20 10° WNW 21:02:13 39° SW 21:04:28 21° SSE
STARLINK-1241 4.1 20:59:41 10° W 21:03:48 63° NNW 21:07:56 10° ENE
Cosmos 1331 Rocket 4.2 21:00:13 10° SSW 21:05:22 76° WNW 21:10:36 10° NNE
Aureole 2 Rocket 4.1 21:03:27 10° WSW 21:06:12 29° WNW 21:08:51 10° N
STARLINK-1238 4.3 21:02:41 10° WNW 21:06:47 55° N 21:10:52 10° E
Cosmos 1733 3.2 21:03:13 10° NNW 21:07:03 78° W 21:09:32 21° S
STARLINK-1113 4.4 21:03:21 10° WNW 21:07:11 37° SW 21:09:15 22° SSE
STARLINK-1239 4.2 21:04:40 10° W 21:08:47 61° NNW 21:12:55 10° ENE
STARLINK-1201 4.3 21:07:40 10° WNW 21:11:46 56° N 21:15:51 10° E
Meteor 1-21 4.5 21:07:51 18° SSE 21:11:51 52° E 21:17:17 10° NNE
COSMOS 2455 4.2 21:09:45 17° SE 21:11:58 21° ESE 21:16:19 10° ENE
Cosmos 1378 3.8 21:09:41 10° SSW 21:13:17 54° WNW 21:16:57 10° N
STARLINK-1240 4.2 21:09:39 10° W 21:13:46 60° N 21:17:53 10° ENE
Cosmos 1486 Rocket 4.0 21:09:19 10° NNW 21:14:39 82° ENE 21:18:13 21° SSE
USA 215 3.8 21:08:38 10° E 21:15:04 60° NNE 21:21:29 10° WNW
Cosmos 1302 Rocket 4.0 21:10:14 10° SSW 21:15:27 75° ESE 21:20:46 10° NNE
Cosmos 1271 Rocket 3.6 21:14:22 23° SE 21:16:01 33° E 21:19:34 10° NNE
Cosmos 1544 Rocket 3.7 21:11:46 10° N 21:16:05 63° ENE 21:18:39 23° SSE
STARLINK-1206 4.3 21:12:41 10° WNW 21:16:47 57° N 21:20:52 10° E
Cosmos 1242 Rocket 3.0 21:15:26 26° SSE 21:17:10 47° E 21:20:44 10° NNE
MTI 3.6 21:14:08 10° NNE 21:17:19 79° ESE 21:18:58 25° S
STARLINK-1203 4.3 21:14:30 10° W 21:18:39 59° N 21:22:50 10° ENE
STARLINK-1216 4.3 21:14:38 10° W 21:18:45 59° N 21:22:51 10° ENE
STARLINK-60 3.6 21:20:10 32° SSE 21:20:13 32° SE 21:23:06 10° E
Cosmos 1092 Rocket 4.1 21:15:30 10° SSW 21:21:32 79° W 21:27:44 10° N
STARLINK-1205 4.2 21:17:39 10° WNW 21:21:46 58° N 21:25:52 10° E
NOSS 2-2 (D) 3.6 21:19:18 10° SW 21:22:52 65° NW 21:27:03 10° NE
STARLINK-1237 4.3 21:19:39 10° W 21:23:45 57° N 21:27:51 10° ENE
CENTAUR R/B 3.2 21:16:12 10° NW 21:24:10 89° SW 21:31:08 18° SE
Cosmos 1707 3.6 21:24:35 25° SE 21:26:06 35° E 21:29:40 10° NNE
STARLINK-1218 4.2 21:22:40 10° WNW 21:26:47 59° N 21:30:53 10° E
ATLAS 3B R/B 3.2 21:20:45 10° NW 21:27:24 58° NE 21:33:57 11° ESE
SL-27 R/B 2.8 21:24:15 10° NNW 21:27:48 57° WSW 21:29:28 27° S
STARLINK-1202 4.3 21:24:39 10° W 21:28:45 56° N 21:32:51 10° ENE
NOSS 3-2 (C) 4.1 21:21:56 10° NW 21:29:22 78° SW 21:35:37 20° SSE
Cosmos 1726 3.3 21:27:51 10° N 21:31:12 31° ENE 21:32:50 22° ESE
STARLINK-1254 4.1 21:27:38 10° WNW 21:31:46 60° N 21:35:52 10° E
ALOS 2 4.1 21:30:24 16° ESE 21:33:05 28° ENE 21:36:49 10° N
Cosmos 1867 3.7 21:28:50 10° NW 21:34:20 75° NE 21:38:07 20° SE
COSMOS 2487 3.6 21:32:13 10° N 21:35:24 33° ENE 21:37:03 21° ESE
STARLINK-1231 4.1 21:32:37 10° WNW 21:36:45 61° NNE 21:40:51 10° E
STARLINK-1246 4.4 21:34:40 10° W 21:38:45 55° N 21:42:51 10° ENE
Cosmos 1943 Rocket 2.3 21:33:15 10° SW 21:38:48 75° WNW 21:44:26 10° NNE
Cosmos 1992 Rocket 4.3 21:36:08 24° S 21:39:01 50° ESE 21:44:03 10° NNE
NOSS 3-4 (A) 3.8 21:36:32 20° S 21:40:21 44° ESE 21:46:18 10° NE
NOSS 3-4 (C) 3.8 21:36:40 20° S 21:40:27 44° ESE 21:46:24 10° NE
STARLINK-1232 4.0 21:37:37 10° WNW 21:41:45 63° NNE 21:45:52 10° E
SeaSat 1 3.0 21:37:44 10° NE 21:42:23 40° ESE 21:44:34 26° SSE
EO 1 Del DPAF 3.5 21:39:24 10° NNE 21:43:06 50° E 21:44:29 32° SSE
STARLINK-1224 4.4 21:39:40 10° W 21:43:45 54° N 21:47:50 10° ENE
STARLINK-1208 4.0 21:42:35 10° WNW 21:46:43 65° NNE 21:50:51 10° E
Cosmos 1975 Rocket 3.9 21:44:36 13° SSW 21:48:20 47° WNW 21:52:37 10° N
STARLINK-1225 4.4 21:44:40 10° W 21:48:45 54° N 21:52:51 10° ENE
STARLINK-1212 2.7 21:46:47 10° WNW 21:49:54 76° SSW 21:50:47 43° SE
STARLINK-1105 2.7 21:47:15 10° WNW 21:50:22 75° SSW 21:51:13 43° SE
Meteor 2-10 4.0 21:45:56 10° N 21:50:59 71° ENE 21:53:43 27° SSE
STARLINK-1247 2.7 21:48:08 10° WNW 21:51:15 74° SSW 21:52:06 43° SE
STARLINK-1227 2.7 21:48:37 10° WNW 21:51:43 74° SSW 21:52:33 44° SE
STARLINK-1271 3.9 21:47:36 10° WNW 21:51:45 67° NNE 21:55:53 10° E
Cosmos 292 Rocket 3.8 21:48:20 17° SSW 21:52:01 86° WNW 21:56:55 10° NNE
BREEZE-M DEB (TANK) 3.2 21:40:04 10° WSW 21:52:23 78° SSE 21:55:50 10° E
STARLINK-1226 2.7 21:49:29 10° WNW 21:52:36 73° SSW 21:53:24 45° SE
BREEZE-M DEB (TANK) 2.8 21:49:17 10° W 21:53:02 78° S 21:57:06 10° ESE
STARLINK-1215 2.7 21:50:23 10° WNW 21:53:30 72° SSW 21:54:16 46° SE
STARLINK-1230 4.4 21:49:40 10° W 21:53:45 54° N 21:57:50 10° ENE
RESURS DK-1 4.2 21:53:57 16° ESE 21:54:10 16° ESE 21:56:40 10° ENE
Cosmos 2227 Rocket 4.4 21:50:04 10° N 21:54:16 21° NE 21:58:28 10° E
S3M 4.0 21:48:08 10° N 21:54:20 81° E 21:58:10 25° SSE
Cosmos 2369 Rocket 2.3 21:49:19 10° SSW 21:54:59 77° WNW 22:00:40 10° NNE
STARLINK-1217 2.7 21:52:12 10° WNW 21:55:19 70° SSW 21:56:00 48° SE
STARLINK-1229 2.7 21:53:07 10° WNW 21:56:13 69° SSW 21:56:54 49° SE
STARLINK-1154 3.9 21:52:35 10° WNW 21:56:44 69° NNE 22:00:52 10° E
STARLINK-1270 2.8 21:54:00 10° WNW 21:57:07 68° SSW 21:57:45 50° SE
STARLINK-1243 4.4 21:54:41 10° W 21:58:45 54° N 22:02:50 10° ENE
STARLINK-1189 2.8 21:55:48 10° WNW 21:58:54 66° SSW 21:59:29 51° SSE
STARLINK-1188 2.8 21:56:43 10° WNW 21:59:49 65° SSW 22:00:22 52° SSE
ATLAS CENTAUR R/B 1.9 21:59:35 33° SSE 22:00:49 41° ESE 22:04:44 10° NE
Cosmos 1340 Rocket 3.0 21:56:47 10° N 22:00:51 64° ENE 22:02:31 33° SSE
STARLINK-1187 2.9 21:57:49 10° WNW 22:00:52 58° SSW 22:01:14 53° S
STARLINK-1197 3.8 21:57:32 10° WNW 22:01:42 72° NNE 22:05:46 10° ESE
STARLINK-1191 2.8 21:59:09 10° WNW 22:02:14 63° SSW 22:02:39 54° SSE
Aureole 3 3.5 21:59:36 10° N 22:02:42 39° ENE 22:03:24 33° ESE
STARLINK-1221 2.8 22:00:06 10° WNW 22:03:11 62° SSW 22:03:34 55° SSE
STARLINK-1236 4.4 21:59:40 10° WNW 22:03:45 54° N 22:07:49 10° E
Thor Agena Rocket 3.5 21:58:34 10° NNE 22:03:55 85° ESE 22:07:12 24° SSW
STARLINK-1222 2.8 22:00:57 10° WNW 22:04:01 61° SSW 22:04:23 55° S
STARLINK-1214 2.8 22:01:51 10° WNW 22:04:56 60° SSW 22:05:15 55° S
Cosmos 1025 Rocket 2.9 22:02:57 29° SSW 22:05:07 86° W 22:09:27 10° N
NOSS 7 (A) 4.4 22:03:59 34° SW 22:05:11 87° SE 22:08:07 10° NE
Cosmos 1908 4.2 22:02:20 10° N 22:05:54 35° ENE 22:07:21 26° ESE
EXPRESS MD2 4.3 22:02:17 10° W 22:06:30 90° SE 22:15:35 10° E
STARLINK-1198 3.8 22:02:31 10° WNW 22:06:40 74° NNE 22:10:33 12° ESE
Cosmos 1553 Rocket 4.2 22:01:34 10° NNW 22:07:46 63° W 22:11:43 23° SSW
ATLAS 2AS CENTAUR R/B 3.0 22:00:38 10° SSW 22:08:34 72° SE 22:16:28 10° NE
Cosmos 1656 Rocket 3.6 22:04:50 22° SSW 22:08:35 75° ESE 22:14:09 10° NNE
BREEZE M DEB (TANK) 1.5 22:05:47 10° W 22:08:33 81° SW 22:08:33 81° SW
Cosmos 1953 2.2 22:05:09 10° N 22:09:10 89° W 22:10:41 37° S
BREEZE-M DEB (TANK) 4.1 21:58:28 10° WNW 22:10:00 49° SW 22:11:56 30° SSE
Cosmos 1470 3.7 22:06:32 10° NNW 22:10:10 38° W 22:11:51 25° SW
STARLINK-1228 3.4 22:07:22 10° WNW 22:10:45 47° SSW 22:11:08 44° S
STARLINK-1199 3.7 22:07:31 10° WNW 22:11:42 77° NNE 22:15:20 13° ESE
STARLINK-1235 3.3 22:10:04 10° WNW 22:13:11 44° SSW 22:13:11 44° SSW
APEX 4.3 22:06:48 10° SW 22:13:12 77° WNW 22:18:25 10° NNE
STARLINK-1269 4.4 22:09:40 10° WNW 22:13:44 54° N 22:17:50 10° E
Cosmos 2292 Rocket 3.3 22:13:24 40° SE 22:14:18 52° E 22:17:25 10° NNE
Cosmos 968 Rocket 4.2 22:10:11 10° NW 22:15:02 42° WSW 22:17:31 25° SSW
STARLINK-1210 3.7 22:12:29 10° WNW 22:16:40 80° NNE 22:20:06 15° ESE
STARLINK-1200 4.4 22:14:38 10° WNW 22:18:44 54° N 22:22:49 10° E
Cosmos 1655 Rocket 4.0 22:15:01 24° S 22:19:02 86° W 22:25:22 10° N
SL-4 R/B 1.3 22:20:18 51° N 22:20:18 51° N 22:22:03 10° NNW
Cosmos 1777 Rocket 4.3 22:15:01 10° NNW 22:20:13 60° ENE 22:23:19 24° SE
STARLINK-1219 3.6 22:17:28 10° WNW 22:21:38 83° NNE 22:24:52 16° ESE
ATLAS 5 CENTAUR R/B 1.1 22:21:46 32° SSW 22:23:06 66° SE 22:25:18 10° NE
STARLINK-1192 4.3 22:19:39 10° WNW 22:23:44 55° N 22:27:50 10° E
STARLINK-52 3.5 22:26:27 41° ESE 22:26:27 41° ESE 22:28:57 10° ENE
Terra 4.0 22:23:33 10° SW 22:26:30 16° W 22:29:27 10° NW
STARLINK-1211 3.6 22:22:28 10° WNW 22:26:38 87° NNE 22:29:41 18° ESE
Cosmos 2228 3.3 22:22:42 10° N 22:26:55 57° ENE 22:28:36 33° SE
SL-4 R/B 2.3 22:22:46 10° WSW 22:27:35 73° SSE 22:32:25 10° ENE
Cosmos 1726 Rocket 4.1 22:23:27 10° N 22:27:40 48° ENE 22:29:31 29° SE
Meteor 2-15 4.4 22:21:30 10° N 22:27:41 89° E 22:31:06 28° S
STARLINK-1244 4.3 22:24:38 10° WNW 22:28:44 56° N 22:32:49 10° E
STARLINK-1234 4.1 22:27:56 10° W 22:30:17 29° WSW 22:30:17 29° WSW
STARLINK-1245 3.5 22:27:26 10° WNW 22:31:36 89° S 22:34:26 20° ESE
Cosmos 1300 4.4 22:28:39 10° NNE 22:31:50 25° ENE 22:33:33 18° ESE
In-Cosmos 22 4.0 22:30:05 29° S 22:32:52 89° E 22:38:11 10° NNE
Cosmos 921 Rocket 4.4 22:31:52 22° ESE 22:32:53 24° E 22:36:25 10° NE
STARLINK-1138 4.3 22:29:38 10° WNW 22:33:44 56° N 22:37:49 10° E
STARLINK-1233 3.5 22:32:23 10° WNW 22:36:34 86° SSW 22:39:11 22° ESE
STARLINK-1209 4.5 22:34:10 10° W 22:36:14 25° WSW 22:36:14 25° WSW
Cosmos 2266 Rocket 3.9 22:33:43 26° SSW 22:37:18 85° W 22:43:23 10° N
STARLINK-1143 4.2 22:34:36 10° WNW 22:38:42 57° N 22:42:48 10° E
STARLINK-1204 3.5 22:37:23 10° WNW 22:41:33 82° SSW 22:43:59 24° ESE
SJ 16-02 3.4 22:39:45 10° N 22:43:16 22° NE 22:46:46 10° ESE
STARLINK-1241 4.2 22:39:38 10° WNW 22:43:44 58° N 22:47:51 10° E
STARLINK-1238 3.5 22:42:23 10° WNW 22:46:33 78° SSW 22:48:47 26° ESE
Meteor 2-15 Rocket 4.4 22:41:26 10° NNW 22:47:36 82° W 22:50:55 29° S
STARLINK-1239 4.2 22:44:36 10° WNW 22:48:43 59° N 22:52:50 10° E
Helios 1B rocket 4.0 22:45:38 10° NE 22:48:57 23° E 22:50:09 20° ESE
Cosmos 1674 2.5 22:48:20 45° S 22:49:24 89° E 22:53:13 10° N
STARLINK-1201 3.5 22:47:21 10° WNW 22:51:31 73° SSW 22:53:33 29° SE
STARLINK-1240 4.1 22:49:34 10° WNW 22:53:42 61° N 22:57:49 10° E
STARLINK-1353 4.4 22:55:17 29° ESE 22:55:17 29° ESE 22:57:58 10° E
STARLINK-60 3.3 22:53:02 10° W 22:56:12 65° NNW 22:59:22 10° ENE
STARLINK-1206 3.5 22:52:21 10° WNW 22:56:30 69° SSW 22:58:21 31° SE
COSMOS 2455 2.9 22:52:50 20° SW 22:57:12 84° NW 23:03:17 10° NE
STARLINK-1375 4.3 22:58:33 31° ESE 22:58:33 31° ESE 23:01:24 10° ENE
Cosmos 2219 3.7 22:52:26 10° NNW 22:58:02 57° NE 23:02:17 17° SE
USA 215 3.2 22:52:57 18° SE 22:58:03 68° SW 23:04:36 10° WNW
STARLINK-1216 4.1 22:54:33 10° WNW 22:58:41 62° NNE 23:02:48 10° E
STARLINK-1203 4.1 22:54:38 10° WNW 22:58:50 63° NNE 23:03:00 10° E
STARLINK-1352 4.3 23:01:56 30° ESE 23:01:56 30° ESE 23:04:33 10° ENE
STARLINK-1350 4.2 23:01:49 33° SE 23:01:49 33° SE 23:04:50 10° ENE
STARLINK-1205 3.5 22:57:19 10° WNW 23:01:27 65° SSW 23:03:07 34° SE
Cosmos 2297 Rocket 2.9 22:56:45 10° NNW 23:02:18 52° NE 23:07:00 14° SE
Helios 1A 3.0 23:01:35 40° S 23:03:02 73° WSW 23:07:15 10° NNW
STARLINK-1237 4.0 22:59:32 10° WNW 23:03:41 64° NNE 23:07:48 10° E
Lacrosse 4 Rocket 3.6 23:02:18 10° NNW 23:05:55 25° NE 23:09:27 10° E
Cosmos 1726 3.8 23:03:20 10° NW 23:06:16 22° W 23:07:20 20° WSW
STARLINK-1218 3.6 23:02:20 10° WNW 23:06:26 61° SSW 23:07:55 36° SE
STARLINK-1368 3.9 23:08:27 38° SE 23:08:27 38° SE 23:11:48 10° ENE
Cosmos 1174 4.2 23:06:36 26° WSW 23:08:15 51° NW 23:12:06 10° NNE
STARLINK-1202 4.0 23:04:32 10° WNW 23:08:40 66° NNE 23:12:49 10° E
ALOS 2 3.5 23:07:47 29° SW 23:09:17 38° W 23:13:24 10° NNW
Timation 2 Rocket 4.0 23:03:24 10° NW 23:09:41 68° WSW 23:12:54 29° S
Cosmos 2058 Rocket 3.0 23:05:44 10° N 23:10:12 84° E 23:11:58 36° SSE
COSMOS 2487 4.2 23:07:41 10° NW 23:10:16 20° W 23:10:32 20° WSW
STARLINK-1254 3.6 23:07:19 10° WNW 23:11:24 58° SSW 23:12:41 38° SSE
STARLINK-1369 3.8 23:11:47 41° SE 23:11:47 41° SE 23:15:17 10° ENE
CENTAUR R/B 4.2 23:07:36 10° WNW 23:14:20 29° WSW 23:18:17 20° SSW
STARLINK-1372 3.7 23:15:07 43° SSE 23:15:10 43° SE 23:18:48 10° ENE
STARLINK-1231 3.7 23:12:17 10° WNW 23:16:21 54° SSW 23:17:27 40° SSE
Meteor 2-5 Rocket 3.7 23:14:12 31° SSW 23:17:02 87° W 23:22:43 10° NNE
ATLAS 3B R/B 3.2 23:11:40 10° NW 23:17:59 43° WSW 23:21:09 27° S
STARLINK-1378 3.6 23:18:28 45° SSE 23:18:39 45° SSE 23:22:18 10° ENE
STARLINK-1246 3.8 23:14:32 10° WNW 23:18:41 71° NNE 23:22:49 10° E
SeaSat 1 3.6 23:15:19 10° NNE 23:19:54 40° NW 23:24:21 11° WSW
Cosmos 1606 Rocket 4.3 23:16:03 10° NNW 23:20:08 41° W 23:21:36 30° SW
SL-14 R/B 3.2 23:19:11 44° SSE 23:20:17 71° E 23:24:08 10° NNE
FALCON 9 DEB 3.0 23:20:07 41° WSW 23:21:12 82° SSE 23:24:40 10° ENE
STARLINK-1232 3.7 23:17:18 10° WNW 23:21:20 51° SSW 23:22:15 41° S
STARLINK-1379 3.6 23:21:51 46° SSE 23:22:10 48° SSE 23:25:50 10° ENE
STARLINK-1329 3.6 23:23:14 47° SSE 23:23:36 49° SSE 23:27:18 10° ENE
STARLINK-1224 3.8 23:19:30 10° WNW 23:23:39 73° NNE 23:27:47 10° ESE
Meteor 2-21 4.4 23:20:59 29° S 23:24:22 89° W 23:30:37 10° N
STARLINK-29 3.2 23:24:02 20° W 23:26:04 68° NNW 23:29:16 10° ENE
STARLINK-1208 3.8 23:22:16 10° WNW 23:26:15 47° SW 23:27:00 42° S
SL-16 R/B 4.1 23:21:09 10° ESE 23:26:25 31° ENE 23:31:43 10° N
STARLINK-1362 3.5 23:26:40 47° S 23:27:10 51° SSE 23:30:53 10° ENE
ATLAS CENTAUR R/B 1.1 23:26:14 10° NW 23:28:27 79° NE 23:32:42 10° ESE
STARLINK-1225 3.7 23:24:30 10° WNW 23:28:39 76° NNE 23:32:48 10° ESE
Cosmos 1656 4.5 23:27:53 26° SSE 23:30:21 38° ESE 23:35:31 10° NE
STARLINK-1373 3.5 23:30:05 47° S 23:30:44 54° SSE 23:34:29 10° ENE
NOSS 3-4 (A) 4.2 23:25:18 10° WSW 23:31:11 51° NW 23:37:33 10° NE
STARLINK-1271 3.9 23:27:18 10° WNW 23:31:15 44° SW 23:31:49 41° S
NOSS 3-4 (C) 4.2 23:25:23 10° WSW 23:31:16 51° NW 23:37:39 10° NE
RESURS DK-1 2.6 23:29:48 30° SW 23:31:42 65° WNW 23:35:51 10° NNE
STARLINK-1365 3.4 23:31:12 46° SSW 23:31:58 56° SSE 23:35:45 10° ENE
STARLINK-1230 3.7 23:29:28 10° WNW 23:33:38 79° NNE 23:37:47 10° ESE
STARLINK-1390 3.4 23:33:34 46° SSW 23:34:21 57° SSE 23:38:06 10° ENE
Cosmos 1697 Rocket 4.2 23:32:47 18° SE 23:35:27 25° ESE 23:39:57 10° NE
Cosmos 2084 3.5 23:33:36 29° SW 23:35:51 86° NW 23:40:21 10° NE
STARLINK-1154 4.0 23:32:17 10° WNW 23:36:12 41° SW 23:36:35 40° SSW
Cosmos 1812 Rocket 4.3 23:32:04 10° N 23:36:25 48° ENE 23:38:55 23° SE
Cosmos 1626 2.2 23:36:00 43° SSW 23:37:05 70° WNW 23:40:49 10° N
BREEZE-M R/B 3.5 23:31:44 14° SW 23:37:16 49° SSE 23:40:46 10° E
STARLINK-1243 3.6 23:34:28 10° WNW 23:38:38 82° NNE 23:42:46 10° ESE
Cosmos 990 Rocket 4.4 23:33:54 10° NNW 23:39:09 61° ENE 23:43:10 17° SE
Cosmos 2227 Rocket 2.3 23:33:34 10° NNW 23:39:17 79° ENE 23:43:29 19° SE
Okean 1-7 Rocket 3.8 23:37:39 33° SSW 23:39:33 66° WNW 23:44:05 10° N
ATLAS CENTAUR R/B 2.9 23:35:53 10° WSW 23:39:48 34° NW 23:43:31 10° NNE
STARLINK-1197 4.1 23:37:16 10° WNW 23:41:09 38° SW 23:41:21 38° SSW
CZ-4 R/B 3.8 23:36:53 10° NNE 23:41:42 83° ESE 23:43:50 33° S
STARLINK-1236 3.6 23:39:26 10° WNW 23:43:36 86° NNE 23:47:45 10° ESE
STARLINK-1198 4.2 23:42:16 10° WNW 23:46:06 36° SW 23:46:07 36° SW
Cosmos 1602 Rocket 3.9 23:47:23 31° SSE 23:49:13 55° E 23:53:28 10° NNE
SL-08 ROCKET BODY 4.4 23:46:46 27° S 23:50:03 73° E 23:55:54 10° NNE
STARLINK-1199 4.3 23:47:19 10° WNW 23:50:55 33° SW 23:50:55 33° SW
STARLINK-1269 3.5 23:49:24 10° WNW 23:53:33 87° SSW 23:57:43 10° ESE
STARLINK-1210 4.4 23:52:18 10° WNW 23:55:42 31° SW 23:55:42 31° SW
